contact:dominique.lefevre@mio.osupytheas.fr, maurice.libes@osupytheas.fr, didier.mallarino@osupytheas.fr
Project:EMSO http://www.emso-fr.org/EMSO-France
Depth: 2436.0 m
Title:EMSO Ligure Ouest : Data MII capteur AQUADOPP
Date,Latitude,Longitude,X_East,Y_North,Z_Up,Amplitude_X,Amplitude_Y,Amplitude_Z,Batterie,SoundSpeed,Heading,Pitch,Roll,Pressure,TIS,Speed,Direction
, degrees North, degrees East, m.s-1, m.s-1,m.s-1, 1, 1, 1, Volt, m.s-1, degree, degree, degree, dbar, degree_C, m.s-1, degree
2022-05-03T00:04:03,42.805,6.029,0.025,-0.019,-0.029,100.0,102.0,100.0,13.4,1505.2,325.8,-0.8,1.8,2470.833,13.28,0.031,127.2
2022-05-03T00:07:03,42.805,6.029,0.051,-0.002,0.029,102.0,102.0,100.0,13.4,1505.2,328.2,-0.8,1.8,2470.788,13.28,0.051,92.2
2022-05-03T00:10:03,42.805,6.029,0.049,0.012,0.024,101.0,102.0,100.0,13.4,1505.2,322.8,-0.7,1.8,2470.745,13.28,0.05,76.2
2022-05-03T00:13:03,42.805,6.029,0.007,0.029,0.017,100.0,102.0,100.0,13.3,1505.2,327.3,-0.7,1.8,2470.717,13.28,0.029,13.6
2022-05-03T00:16:03,42.805,6.029,0.017,0.002,-0.003,102.0,102.0,100.0,13.4,1505.2,327.9,-0.8,1.8,2470.693,13.28,0.017,83.3
2022-05-03T00:19:03,42.805,6.029,0.047,0.004,0.028,102.0,100.0,100.0,13.4,1505.2,332.2,-0.8,1.8,2470.709,13.28,0.047,85.1
2022-05-03T00:22:03,42.805,6.029,0.017,0.004,0.013,102.0,102.0,99.0,13.4,1505.2,330.4,-0.8,1.8,2470.713,13.28,0.017,76.8
2022-05-03T00:25:03,42.805,6.029,0.017,-0.008,-0.005,103.0,103.0,99.0,13.3,1505.2,327.6,-0.8,1.8,2470.755,13.28,0.018,115.2
2022-05-03T00:28:03,42.805,6.029,0.005,0.016,0.03,102.0,101.0,100.0,13.3,1505.2,327.0,-0.8,1.8,2470.747,13.28,0.016,17.4
2022-05-03T00:31:03,42.805,6.029,0.02,0.016,0.015,101.0,102.0,100.0,13.3,1505.2,322.2,-0.8,1.8,2470.736,13.28,0.025,51.3
2022-05-03T00:34:03,42.805,6.029,0.021,0.0,0.0,100.0,103.0,102.0,13.4,1505.2,325.3,-0.8,1.8,2470.712,13.28,0.021,90.0
2022-05-03T00:37:03,42.805,6.029,0.012,0.0,0.0,101.0,102.0,101.0,13.4,1505.2,331.2,-0.7,1.8,2470.746,13.28,0.012,90.0
2022-05-03T00:40:03,42.805,6.029,0.024,-0.007,-0.016,102.0,101.0,100.0,13.3,1505.2,328.5,-0.8,1.8,2470.787,13.28,0.025,106.3
2022-05-03T00:43:03,42.805,6.029,0.028,0.003,-0.001,101.0,102.0,100.0,13.4,1505.2,330.4,-0.8,1.8,2470.716,13.28,0.028,83.9
2022-05-03T00:46:03,42.805,6.029,0.017,0.014,-0.015,101.0,103.0,100.0,13.3,1505.2,328.5,-0.8,1.8,2470.739,13.28,0.022,50.5
2022-05-03T00:49:03,42.805,6.029,0.034,0.0,-0.016,102.0,103.0,99.0,13.3,1505.2,321.9,-0.7,1.8,2470.718,13.28,0.034,90.0
2022-05-03T00:52:03,42.805,6.029,0.013,-0.001,-0.011,101.0,103.0,100.0,13.3,1505.2,329.1,-0.8,1.8,2470.708,13.28,0.013,94.4
2022-05-03T00:55:03,42.805,6.029,0.033,0.002,0.003,102.0,101.0,101.0,13.3,1505.2,331.6,-0.8,1.8,2470.68,13.28,0.033,86.5
2022-05-03T00:58:03,42.805,6.029,0.031,-0.001,0.031,101.0,103.0,100.0,13.3,1505.2,331.1,-0.7,1.8,2470.703,13.28,0.031,91.8
2022-05-03T01:04:03,42.805,6.029,-0.007,-0.003,-0.026,102.0,103.0,102.0,13.3,1505.2,323.7,-0.8,1.8,2470.648,13.28,0.007,246.8
2022-05-03T01:07:03,42.805,6.029,0.028,0.016,0.012,102.0,102.0,101.0,13.4,1505.2,328.3,-0.7,1.8,2470.617,13.28,0.032,60.3
2022-05-03T01:10:03,42.805,6.029,0.025,-0.018,-0.041,101.0,102.0,100.0,13.4,1505.2,322.7,-0.8,1.8,2470.671,13.28,0.03,125.8
2022-05-03T01:13:03,42.805,6.029,0.049,-0.013,-0.008,101.0,103.0,103.0,13.4,1505.2,332.0,-0.8,1.8,2470.608,13.28,0.05,104.9
2022-05-03T01:16:03,42.805,6.029,0.026,0.013,0.043,103.0,102.0,101.0,13.3,1505.2,328.5,-0.8,1.8,2470.622,13.28,0.029,63.4
2022-05-03T01:19:03,42.805,6.029,0.008,-0.016,-0.015,102.0,103.0,100.0,13.3,1505.2,332.3,-0.8,1.8,2470.687,13.28,0.017,153.4
2022-05-03T01:22:03,42.805,6.029,0.023,0.007,0.014,101.0,102.0,100.0,13.4,1505.2,329.1,-0.8,1.8,2470.637,13.28,0.024,73.1
2022-05-03T01:25:03,42.805,6.029,0.034,-0.001,-0.003,100.0,103.0,100.0,13.3,1505.2,332.6,-0.7,1.8,2470.695,13.28,0.034,91.7
2022-05-03T01:28:03,42.805,6.029,0.024,0.0,0.014,101.0,103.0,101.0,13.4,1505.2,325.8,-0.8,1.8,2470.707,13.28,0.024,90.0
2022-05-03T01:31:03,42.805,6.029,0.034,-0.002,-0.001,102.0,102.0,102.0,13.4,1505.2,326.1,-0.8,1.8,2470.657,13.28,0.034,93.4
2022-05-03T01:34:03,42.805,6.029,0.034,-0.001,0.003,100.0,104.0,101.0,13.4,1505.2,331.5,-0.7,1.9,2470.698,13.28,0.034,91.7
2022-05-03T01:37:03,42.805,6.029,0.032,-0.008,-0.005,101.0,102.0,100.0,13.4,1505.2,331.2,-0.7,1.8,2470.697,13.28,0.032,104.0
2022-05-03T01:40:03,42.805,6.029,0.035,-0.001,0.016,102.0,104.0,100.0,13.4,1505.2,326.9,-0.8,1.8,2470.749,13.28,0.035,91.6
2022-05-03T01:43:03,42.805,6.029,0.032,-0.006,0.0,101.0,102.0,100.0,13.3,1505.2,330.4,-0.7,1.8,2470.722,13.28,0.032,100.6
2022-05-03T01:46:03,42.805,6.029,0.01,-0.003,0.004,100.0,103.0,101.0,13.3,1505.2,322.3,-0.7,1.8,2470.753,13.28,0.01,106.7
2022-05-03T01:49:03,42.805,6.029,0.028,-0.015,0.0,102.0,102.0,101.0,13.3,1505.2,328.7,-0.8,1.8,2470.732,13.28,0.031,118.2
2022-05-03T01:52:03,42.805,6.029,0.059,-0.011,0.026,104.0,102.0,99.0,13.4,1505.2,332.2,-0.8,1.8,2470.71,13.28,0.06,100.6
2022-05-03T01:55:03,42.805,6.029,0.02,0.012,0.021,100.0,103.0,101.0,13.4,1505.2,324.2,-0.8,1.8,2470.748,13.28,0.023,59.0
2022-05-03T01:58:03,42.805,6.029,0.028,0.008,-0.009,102.0,102.0,101.0,13.4,1505.2,322.1,-0.7,1.8,2470.724,13.28,0.029,74.1
2022-05-03T02:04:03,42.805,6.029,0.059,-0.013,0.0,102.0,103.0,100.0,13.4,1505.2,332.2,-0.8,1.9,2470.788,13.28,0.06,102.4
2022-05-03T02:07:03,42.805,6.029,0.049,-0.003,0.026,102.0,101.0,100.0,13.4,1505.2,327.0,-0.8,1.8,2470.735,13.28,0.049,93.5
2022-05-03T02:10:03,42.805,6.029,0.031,0.0,0.002,99.0,103.0,100.0,13.3,1505.2,324.9,-0.7,1.8,2470.699,13.28,0.03,90.0
2022-05-03T02:13:03,42.805,6.029,0.043,-0.001,0.008,101.0,102.0,100.0,13.3,1505.2,325.2,-0.7,1.8,2470.708,13.28,0.043,91.3
2022-05-03T02:16:03,42.805,6.029,0.068,-0.003,0.028,101.0,103.0,99.0,13.4,1505.2,325.0,-0.7,1.8,2470.715,13.28,0.068,92.5
2022-05-03T02:19:03,42.805,6.029,0.018,0.019,0.034,101.0,103.0,100.0,13.3,1505.2,330.5,-0.8,1.8,2470.719,13.28,0.026,43.5
2022-05-03T02:22:03,42.805,6.029,0.026,0.001,0.017,100.0,103.0,100.0,13.3,1505.2,321.5,-0.8,1.8,2470.748,13.28,0.026,87.8
2022-05-03T02:25:03,42.805,6.029,0.016,0.001,0.019,102.0,102.0,100.0,13.4,1505.2,327.1,-0.8,1.8,2470.726,13.28,0.016,86.4
2022-05-03T02:28:03,42.805,6.029,0.05,-0.013,-0.014,103.0,101.0,101.0,13.4,1505.2,323.2,-0.7,1.8,2470.72,13.28,0.051,104.6
2022-05-03T02:31:03,42.805,6.029,0.021,-0.007,-0.014,101.0,101.0,101.0,13.4,1505.2,329.6,-0.7,1.8,2470.695,13.28,0.022,108.4
2022-05-03T02:34:03,42.805,6.029,0.043,0.003,0.021,101.0,103.0,100.0,13.4,1505.2,328.1,-0.7,1.8,2470.726,13.28,0.043,86.0
2022-05-03T02:37:03,42.805,6.029,0.026,-0.006,-0.028,102.0,104.0,100.0,13.3,1505.2,329.5,-0.8,1.8,2470.709,13.28,0.026,103.0
2022-05-03T02:40:03,42.805,6.029,0.037,-0.014,-0.014,103.0,104.0,99.0,13.4,1505.2,329.0,-0.8,1.8,2470.681,13.28,0.039,110.7
2022-05-03T02:43:03,42.805,6.029,0.017,0.005,0.0,100.0,104.0,100.0,13.3,1505.2,322.3,-0.7,1.8,2470.627,13.28,0.017,73.6
2022-05-03T02:46:03,42.805,6.029,0.021,0.003,0.005,100.0,102.0,101.0,13.4,1505.2,325.3,-0.8,1.8,2470.644,13.28,0.021,81.9
2022-05-03T02:49:03,42.805,6.029,-0.007,-0.011,-0.001,102.0,103.0,100.0,13.4,1505.2,327.0,-0.8,1.8,2470.652,13.28,0.013,212.5
2022-05-03T02:52:03,42.805,6.029,0.029,0.005,0.0,100.0,102.0,100.0,13.4,1505.2,330.1,-0.7,1.8,2470.636,13.28,0.029,80.2
2022-05-03T02:55:03,42.805,6.029,0.003,0.009,0.011,102.0,102.0,100.0,13.4,1505.2,322.4,-0.8,1.9,2470.665,13.28,0.009,18.4
2022-05-03T02:58:03,42.805,6.029,0.033,-0.011,0.017,100.0,102.0,100.0,13.4,1505.2,332.0,-0.8,1.8,2470.631,13.28,0.034,108.4
2022-05-03T03:04:03,42.805,6.029,0.011,0.017,0.024,101.0,101.0,99.0,13.4,1505.2,332.3,-0.7,1.8,2470.71,13.28,0.02,32.9
2022-05-03T03:07:03,42.805,6.029,0.017,0.007,0.014,102.0,102.0,100.0,13.4,1505.2,321.9,-0.8,1.8,2470.638,13.28,0.018,67.6
2022-05-03T03:10:03,42.805,6.029,0.028,0.001,0.001,102.0,103.0,100.0,13.3,1505.2,326.6,-0.8,1.8,2470.636,13.28,0.028,88.0
2022-05-03T03:13:03,42.805,6.029,0.028,0.008,0.006,100.0,103.0,100.0,13.3,1505.2,329.4,-0.8,1.8,2470.629,13.28,0.029,74.1
2022-05-03T03:16:03,42.805,6.029,0.019,0.013,0.006,101.0,103.0,98.0,13.3,1505.2,327.7,-0.7,1.8,2470.67,13.28,0.023,55.6
2022-05-03T03:19:03,42.805,6.029,0.001,-0.001,-0.002,101.0,104.0,100.0,13.4,1505.2,325.3,-0.7,1.8,2470.706,13.28,0.001,135.0
2022-05-03T03:22:03,42.805,6.029,0.023,-0.018,0.012,100.0,102.0,100.0,13.4,1505.2,329.1,-0.8,1.8,2470.729,13.28,0.029,128.0
2022-05-03T03:25:03,42.805,6.029,0.027,0.015,0.028,100.0,101.0,100.0,13.4,1505.2,323.5,-0.8,1.8,2470.704,13.28,0.03,60.9
2022-05-03T03:28:03,42.805,6.029,0.023,-0.003,-0.018,100.0,102.0,100.0,13.3,1505.2,330.6,-0.7,1.8,2470.689,13.28,0.023,97.4
2022-05-03T03:31:03,42.805,6.029,0.028,-0.006,-0.009,101.0,102.0,101.0,13.3,1505.2,322.5,-0.8,1.8,2470.696,13.28,0.028,102.1
2022-05-03T03:34:03,42.805,6.029,0.018,0.019,0.022,101.0,102.0,100.0,13.4,1505.2,330.3,-0.8,1.9,2470.712,13.28,0.026,43.5
2022-05-03T03:37:03,42.805,6.029,0.03,-0.008,0.014,101.0,102.0,100.0,13.4,1505.2,331.6,-0.7,1.8,2470.708,13.28,0.031,104.9
2022-05-03T03:40:03,42.805,6.029,0.028,0.009,-0.019,101.0,103.0,100.0,13.4,1505.2,322.3,-0.7,1.8,2470.635,13.28,0.029,72.2
2022-05-03T03:43:03,42.805,6.029,0.031,0.004,-0.002,103.0,105.0,100.0,13.3,1505.2,328.6,-0.7,1.8,2470.674,13.28,0.031,82.7
2022-05-03T03:46:03,42.805,6.029,0.017,-0.002,0.007,102.0,102.0,100.0,13.3,1505.2,328.3,-0.7,1.8,2470.676,13.28,0.017,96.7
2022-05-03T03:49:03,42.805,6.029,0.026,-0.003,0.002,100.0,104.0,100.0,13.3,1505.2,331.3,-0.8,1.8,2470.705,13.28,0.026,96.6
2022-05-03T03:52:03,42.805,6.029,0.028,-0.002,-0.003,101.0,103.0,100.0,13.4,1505.2,333.0,-0.7,1.9,2470.687,13.28,0.028,94.1
2022-05-03T03:55:03,42.805,6.029,0.009,0.02,-0.007,102.0,103.0,100.0,13.3,1505.2,322.7,-0.8,1.8,2470.689,13.28,0.021,24.2
2022-05-03T03:58:03,42.805,6.029,0.02,0.007,0.058,101.0,103.0,99.0,13.3,1505.2,331.4,-0.7,1.8,2470.659,13.28,0.021,70.7
2022-05-03T04:04:03,42.805,6.029,0.029,-0.004,-0.011,102.0,102.0,100.0,13.4,1505.2,325.3,-0.7,1.8,2470.705,13.28,0.029,97.8
2022-05-03T04:07:03,42.805,6.029,0.038,-0.021,-0.007,101.0,102.0,100.0,13.4,1505.2,327.4,-0.8,1.9,2470.66,13.28,0.043,118.9
2022-05-03T04:10:03,42.805,6.029,0.014,0.018,0.001,101.0,102.0,101.0,13.4,1505.2,326.0,-0.7,1.8,2470.69,13.28,0.022,37.9
2022-05-03T04:13:03,42.805,6.029,0.043,0.007,0.012,101.0,103.0,100.0,13.3,1505.2,332.5,-0.8,1.8,2470.673,13.28,0.043,80.8
2022-05-03T04:16:03,42.805,6.029,0.025,0.009,-0.01,102.0,104.0,99.0,13.3,1505.2,323.3,-0.8,1.8,2470.714,13.28,0.026,70.2
2022-05-03T04:19:03,42.805,6.029,0.014,0.002,0.0,101.0,102.0,100.0,13.3,1505.2,328.1,-0.8,1.8,2470.698,13.28,0.014,81.9
2022-05-03T04:22:03,42.805,6.029,0.02,0.014,0.02,100.0,102.0,100.0,13.4,1505.2,327.3,-0.8,1.8,2470.748,13.28,0.024,55.0
2022-05-03T04:25:03,42.805,6.029,0.024,-0.01,-0.02,100.0,103.0,101.0,13.3,1505.2,330.1,-0.7,1.8,2470.698,13.28,0.026,112.6
2022-05-03T04:28:03,42.805,6.029,0.007,-0.001,-0.009,100.0,102.0,100.0,13.3,1505.2,329.6,-0.7,1.8,2470.683,13.28,0.007,98.1
2022-05-03T04:31:03,42.805,6.029,0.017,-0.01,-0.032,101.0,101.0,101.0,13.3,1505.2,322.4,-0.8,1.8,2470.698,13.28,0.019,120.5
2022-05-03T04:34:03,42.805,6.029,0.008,0.006,0.019,101.0,103.0,100.0,13.3,1505.2,327.8,-0.8,1.8,2470.664,13.28,0.01,53.1
2022-05-03T04:37:03,42.805,6.029,0.029,-0.011,0.033,101.0,102.0,100.0,13.4,1505.2,328.5,-0.8,1.8,2470.681,13.28,0.031,110.8
2022-05-03T04:40:03,42.805,6.029,0.044,-0.023,-0.04,100.0,103.0,101.0,13.3,1505.2,329.4,-0.8,1.7,2470.691,13.28,0.049,117.6
2022-05-03T04:43:03,42.805,6.029,0.039,0.005,-0.03,101.0,103.0,100.0,13.3,1505.2,322.3,-0.8,1.8,2470.675,13.28,0.039,82.7
2022-05-03T04:46:03,42.805,6.029,0.042,0.005,0.0,102.0,102.0,99.0,13.3,1505.2,326.1,-0.8,1.8,2470.671,13.28,0.042,83.2
2022-05-03T04:49:03,42.805,6.029,0.019,0.004,0.022,102.0,102.0,100.0,13.3,1505.2,325.4,-0.7,1.8,2470.603,13.28,0.019,78.1
2022-05-03T04:52:03,42.805,6.029,0.02,-0.006,0.014,101.0,102.0,100.0,13.4,1505.2,330.5,-0.8,1.8,2470.639,13.28,0.02,106.7
2022-05-03T04:55:03,42.805,6.029,0.014,-0.003,-0.002,100.0,101.0,101.0,13.3,1505.2,328.1,-0.7,1.8,2470.577,13.28,0.014,102.1
2022-05-03T04:58:03,42.805,6.029,-0.01,-0.005,-0.034,102.0,101.0,99.0,13.4,1505.2,325.8,-0.8,1.8,2470.551,13.28,0.011,243.4
2022-05-03T05:04:03,42.805,6.029,0.001,0.018,0.005,101.0,101.0,100.0,13.4,1505.2,329.3,-0.8,1.8,2470.56,13.28,0.018,3.2
2022-05-03T05:07:03,42.805,6.029,0.027,0.004,0.017,101.0,103.0,100.0,13.3,1505.2,330.1,-0.8,1.8,2470.542,13.28,0.027,81.6
2022-05-03T05:10:03,42.805,6.029,0.036,0.004,0.031,101.0,102.0,101.0,13.3,1505.2,322.8,-0.8,1.8,2470.565,13.28,0.036,83.7
2022-05-03T05:13:03,42.805,6.029,0.016,-0.007,0.001,102.0,103.0,99.0,13.3,1505.2,330.1,-0.7,1.8,2470.532,13.28,0.017,113.6
2022-05-03T05:16:03,42.805,6.029,0.043,0.001,-0.024,102.0,104.0,99.0,13.4,1505.2,328.1,-0.8,1.8,2470.481,13.28,0.043,88.7
2022-05-03T05:19:03,42.805,6.029,0.021,-0.004,-0.016,102.0,103.0,99.0,13.4,1505.2,330.7,-0.7,1.8,2470.506,13.28,0.021,100.8
2022-05-03T05:22:03,42.805,6.029,0.017,-0.006,-0.018,103.0,101.0,100.0,13.3,1505.2,329.3,-0.8,1.8,2470.471,13.28,0.018,109.4
2022-05-03T05:25:03,42.805,6.029,0.019,0.004,0.019,102.0,103.0,100.0,13.4,1505.2,328.1,-0.8,1.8,2470.488,13.28,0.019,78.1
2022-05-03T05:28:03,42.805,6.029,0.028,-0.009,-0.001,102.0,101.0,100.0,13.3,1505.2,327.0,-0.7,1.9,2470.485,13.28,0.029,107.8
2022-05-03T05:31:03,42.805,6.029,0.011,0.013,0.016,102.0,102.0,100.0,13.4,1505.2,323.7,-0.7,1.8,2470.48,13.28,0.017,40.2
2022-05-03T05:34:03,42.805,6.029,0.025,0.031,-0.009,103.0,101.0,100.0,13.4,1505.2,324.9,-0.8,1.8,2470.471,13.28,0.039,38.9
2022-05-03T05:37:03,42.805,6.029,0.006,0.0,0.009,102.0,102.0,100.0,13.3,1505.2,324.0,-0.8,1.8,2470.488,13.28,0.006,90.0
2022-05-03T05:40:03,42.805,6.029,0.027,0.006,0.019,101.0,103.0,100.0,13.4,1505.2,327.8,-0.7,1.8,2470.458,13.28,0.027,77.5
2022-05-03T05:43:03,42.805,6.029,0.016,0.024,0.034,102.0,104.0,99.0,13.4,1505.2,322.0,-0.8,1.8,2470.502,13.28,0.028,33.7
2022-05-03T05:46:03,42.805,6.029,0.039,0.001,-0.008,102.0,103.0,100.0,13.3,1505.2,330.7,-0.7,1.8,2470.463,13.28,0.039,88.5
2022-05-03T05:49:03,42.805,6.029,0.029,-0.021,-0.002,101.0,104.0,100.0,13.3,1505.2,326.6,-0.8,1.8,2470.486,13.28,0.035,125.9
2022-05-03T05:52:03,42.805,6.029,0.025,-0.001,0.013,101.0,102.0,100.0,13.3,1505.2,328.9,-0.7,1.9,2470.517,13.28,0.025,92.3
2022-05-03T05:55:03,42.805,6.029,0.013,0.01,-0.004,103.0,102.0,101.0,13.3,1505.2,327.8,-0.8,1.8,2470.516,13.28,0.016,52.4
2022-05-03T05:58:03,42.805,6.029,0.01,0.021,0.012,101.0,101.0,101.0,13.4,1505.2,323.0,-0.7,1.8,2470.445,13.28,0.023,25.5
2022-05-03T06:01:03,42.805,6.029,0.024,-0.008,0.01,102.0,101.0,101.0,13.4,1505.2,325.2,-0.7,1.8,2470.468,13.28,0.025,108.4
2022-05-03T06:04:03,42.805,6.029,0.004,-0.004,-0.016,102.0,101.0,99.0,13.4,1505.2,327.7,-0.7,1.8,2470.525,13.28,0.005,135.0
2022-05-03T06:07:03,42.805,6.029,0.036,0.013,0.026,101.0,102.0,99.0,13.3,1505.2,330.8,-0.8,1.8,2470.491,13.28,0.038,70.1
2022-05-03T06:10:03,42.805,6.029,0.0,0.002,0.005,102.0,103.0,99.0,13.4,1505.2,323.7,-0.8,1.9,2470.562,13.28,0.002,0.0
2022-05-03T06:13:03,42.805,6.029,0.013,0.013,0.028,102.0,102.0,99.0,13.4,1505.2,332.3,-0.7,1.8,2470.589,13.28,0.018,45.0
2022-05-03T06:16:03,42.805,6.029,0.035,-0.004,-0.024,101.0,102.0,100.0,13.4,1505.2,323.2,-0.8,1.8,2470.61,13.28,0.035,96.5
2022-05-03T06:19:03,42.805,6.029,0.019,0.032,0.024,102.0,102.0,100.0,13.4,1505.2,331.4,-0.7,1.8,2470.611,13.28,0.037,30.7
2022-05-03T06:22:03,42.805,6.029,0.008,0.016,-0.003,100.0,103.0,100.0,13.3,1505.2,330.3,-0.8,1.8,2470.656,13.28,0.017,26.6
2022-05-03T06:25:03,42.805,6.029,0.018,0.0,0.016,102.0,103.0,100.0,13.4,1505.2,328.5,-0.8,1.8,2470.751,13.28,0.018,90.0
2022-05-03T06:28:03,42.805,6.029,0.02,0.007,-0.009,102.0,103.0,100.0,13.4,1505.2,327.7,-0.7,1.8,2470.799,13.28,0.021,70.7
2022-05-03T06:31:03,42.805,6.029,0.024,-0.01,0.008,101.0,103.0,100.0,13.3,1505.2,326.1,-0.8,1.8,2470.879,13.28,0.026,112.6
2022-05-03T06:34:03,42.805,6.029,0.031,0.012,0.0,102.0,103.0,101.0,13.3,1505.2,326.0,-0.8,1.8,2470.808,13.28,0.033,68.8
2022-05-03T06:37:03,42.805,6.029,-0.007,0.01,-0.007,101.0,103.0,100.0,13.3,1505.2,325.3,-0.8,1.8,2470.75,13.28,0.012,325.0
2022-05-03T06:40:03,42.805,6.029,0.033,-0.026,0.004,103.0,104.0,101.0,13.4,1505.2,327.9,-0.7,1.8,2470.821,13.28,0.042,128.2
2022-05-03T06:43:03,42.805,6.029,0.016,0.008,0.0,102.0,104.0,99.0,13.4,1505.2,327.6,-0.8,1.9,2470.884,13.28,0.017,63.4
2022-05-03T06:46:03,42.805,6.029,0.022,0.014,-0.006,102.0,102.0,101.0,13.3,1505.2,326.6,-0.8,1.8,2470.968,13.28,0.026,57.5
2022-05-03T06:49:03,42.805,6.029,0.032,0.008,-0.018,101.0,104.0,100.0,13.4,1505.2,329.8,-0.8,1.8,2470.925,13.28,0.032,76.0
2022-05-03T06:52:03,42.805,6.029,0.033,0.007,0.024,101.0,104.0,100.0,13.4,1505.2,327.5,-0.7,1.8,2471.065,13.28,0.033,78.0
2022-05-03T06:55:03,42.805,6.029,0.041,0.007,-0.005,102.0,103.0,100.0,13.4,1505.2,323.9,-0.8,1.8,2471.108,13.28,0.041,80.3
2022-05-03T06:58:03,42.805,6.029,0.038,0.019,0.056,103.0,105.0,100.0,13.4,1505.2,322.1,-0.7,1.8,2471.111,13.28,0.042,63.4
2022-05-03T07:04:03,42.805,6.029,0.029,0.013,0.032,101.0,103.0,100.0,13.4,1505.2,332.8,-0.7,1.8,2471.276,13.28,0.031,65.9
2022-05-03T07:07:03,42.805,6.029,0.003,0.004,0.009,102.0,103.0,100.0,13.4,1505.2,326.3,-0.7,1.8,2471.239,13.28,0.005,36.9
2022-05-03T07:10:03,42.805,6.029,0.033,0.0,0.027,101.0,104.0,100.0,13.4,1505.2,322.2,-0.8,1.8,2471.233,13.28,0.033,90.0
2022-05-03T07:13:03,42.805,6.029,0.016,-0.001,0.012,101.0,102.0,100.0,13.4,1505.2,328.7,-0.8,1.8,2471.21,13.28,0.016,93.6
2022-05-03T07:16:03,42.805,6.029,-0.004,0.001,-0.003,101.0,102.0,101.0,13.4,1505.2,329.1,-0.8,1.8,2471.22,13.28,0.004,284.0
2022-05-03T07:19:03,42.805,6.029,0.034,-0.011,0.003,102.0,104.0,99.0,13.4,1505.2,330.6,-0.8,1.8,2471.253,13.28,0.035,107.9
2022-05-03T07:22:03,42.805,6.029,0.049,0.012,0.021,100.0,102.0,101.0,13.4,1505.2,324.7,-0.8,1.8,2471.246,13.28,0.05,76.2
2022-05-03T07:25:03,42.805,6.029,0.034,0.0,0.034,103.0,103.0,100.0,13.4,1505.2,327.8,-0.8,1.8,2471.295,13.28,0.034,90.0
2022-05-03T07:28:03,42.805,6.029,0.03,0.014,0.045,102.0,101.0,101.0,13.3,1505.2,322.7,-0.8,1.8,2471.239,13.28,0.033,65.0
2022-05-03T07:31:03,42.805,6.029,0.027,-0.003,0.031,104.0,101.0,100.0,13.4,1505.2,326.1,-0.7,1.9,2471.219,13.28,0.027,96.3
2022-05-03T07:34:03,42.805,6.029,0.017,0.008,-0.004,102.0,102.0,101.0,13.4,1505.2,328.1,-0.7,1.8,2471.229,13.28,0.018,64.8
2022-05-03T07:37:03,42.805,6.029,0.013,0.0,0.04,101.0,103.0,101.0,13.3,1505.2,323.1,-0.7,1.8,2471.184,13.28,0.013,90.0
2022-05-03T07:40:03,42.805,6.029,0.014,0.003,-0.009,102.0,103.0,100.0,13.4,1505.2,324.8,-0.8,1.8,2471.248,13.28,0.014,77.9
2022-05-03T07:43:03,42.805,6.029,0.043,-0.022,-0.031,102.0,103.0,100.0,13.4,1505.2,331.1,-0.7,1.9,2471.305,13.28,0.048,117.1
2022-05-03T07:46:03,42.805,6.029,0.017,0.003,0.021,101.0,103.0,101.0,13.4,1505.2,330.5,-0.8,1.8,2471.353,13.28,0.017,80.0
2022-05-03T07:49:03,42.805,6.029,0.04,0.012,0.023,102.0,102.0,100.0,13.3,1505.2,322.7,-0.8,1.8,2471.36,13.28,0.041,73.3
2022-05-03T07:52:03,42.805,6.029,0.031,-0.005,-0.025,103.0,102.0,100.0,13.3,1505.2,328.6,-0.8,1.8,2471.479,13.28,0.031,99.2
2022-05-03T07:55:03,42.805,6.029,0.007,0.019,0.009,101.0,104.0,101.0,13.4,1505.2,331.7,-0.8,1.8,2471.466,13.28,0.02,20.2
2022-05-03T07:58:03,42.805,6.029,0.026,0.015,0.012,102.0,103.0,100.0,13.3,1505.2,321.2,-0.7,1.8,2471.382,13.28,0.03,60.0
2022-05-03T08:04:03,42.805,6.029,0.024,0.023,0.019,102.0,102.0,100.0,13.4,1505.2,323.2,-0.8,1.8,2471.329,13.28,0.033,46.2
2022-05-03T08:07:03,42.805,6.029,0.032,-0.001,-0.005,102.0,102.0,100.0,13.4,1505.2,329.5,-0.8,1.8,2471.439,13.28,0.032,91.8
2022-05-03T08:10:03,42.805,6.029,0.01,0.004,-0.024,103.0,101.0,101.0,13.4,1505.2,325.9,-0.7,1.8,2471.493,13.28,0.01,68.2
2022-05-03T08:13:03,42.805,6.029,0.018,0.013,-0.004,100.0,102.0,101.0,13.4,1505.2,324.2,-0.8,1.8,2471.596,13.28,0.022,54.2
2022-05-03T08:16:03,42.805,6.029,0.01,0.037,0.021,102.0,102.0,101.0,13.4,1505.2,328.1,-0.8,1.8,2471.625,13.28,0.038,15.1
2022-05-03T08:19:03,42.805,6.029,0.009,0.001,0.004,102.0,102.0,101.0,13.4,1505.2,325.2,-0.7,1.8,2471.581,13.28,0.009,83.7
2022-05-03T08:22:03,42.805,6.029,0.026,-0.002,-0.001,101.0,104.0,100.0,13.3,1505.2,331.8,-0.8,1.8,2471.563,13.28,0.026,94.4
2022-05-03T08:25:03,42.805,6.029,0.022,-0.01,0.02,102.0,101.0,101.0,13.4,1505.2,328.8,-0.7,1.8,2471.497,13.28,0.024,114.4
2022-05-03T08:28:03,42.805,6.029,0.035,0.001,0.002,101.0,103.0,101.0,13.4,1505.2,324.0,-0.8,1.8,2471.526,13.28,0.035,88.4
2022-05-03T08:31:03,42.805,6.029,0.034,-0.016,-0.021,101.0,104.0,101.0,13.4,1505.2,328.1,-0.8,1.8,2471.525,13.28,0.037,115.2
2022-05-03T08:34:03,42.805,6.029,0.04,0.012,0.027,101.0,102.0,101.0,13.4,1505.2,327.8,-0.8,1.8,2471.424,13.28,0.041,73.3
2022-05-03T08:37:03,42.805,6.029,0.033,-0.002,0.0,100.0,102.0,101.0,13.4,1505.2,332.2,-0.7,1.8,2471.416,13.28,0.033,93.5
2022-05-03T08:40:03,42.805,6.029,0.022,-0.002,-0.003,101.0,102.0,101.0,13.4,1505.2,331.8,-0.8,1.8,2471.452,13.28,0.022,95.2
2022-05-03T08:43:03,42.805,6.029,0.039,-0.007,0.009,103.0,102.0,101.0,13.4,1505.2,326.0,-0.8,1.8,2471.538,13.28,0.039,100.2
2022-05-03T08:46:03,42.805,6.029,0.03,-0.008,0.02,101.0,103.0,100.0,13.4,1505.2,327.9,-0.8,1.8,2471.52,13.28,0.031,104.9
2022-05-03T08:49:03,42.805,6.029,0.001,-0.003,0.018,101.0,103.0,100.0,13.4,1505.2,331.6,-0.8,1.8,2471.525,13.28,0.003,161.6
2022-05-03T08:52:03,42.805,6.029,0.008,-0.006,-0.008,101.0,103.0,101.0,13.4,1505.2,322.3,-0.8,1.8,2471.531,13.28,0.01,126.9
2022-05-03T08:55:03,42.805,6.029,0.019,0.02,0.021,101.0,101.0,100.0,13.3,1505.2,331.3,-0.7,1.8,2471.603,13.28,0.027,43.5
2022-05-03T08:58:03,42.805,6.029,0.0,0.008,0.002,100.0,102.0,100.0,13.4,1505.2,322.9,-0.8,1.9,2471.558,13.28,0.008,0.0
2022-05-03T09:04:03,42.805,6.029,0.01,0.0,-0.028,102.0,102.0,101.0,13.4,1505.2,322.1,-0.8,1.8,2471.631,13.28,0.01,90.0
2022-05-03T09:07:03,42.805,6.029,0.007,0.012,0.021,102.0,101.0,101.0,13.4,1505.2,325.2,-0.8,1.8,2471.438,13.28,0.013,30.3
2022-05-03T09:10:03,42.805,6.029,0.047,-0.008,0.0,102.0,103.0,103.0,13.3,1505.2,322.3,-0.8,1.8,2471.338,13.28,0.047,99.7
2022-05-03T09:13:03,42.805,6.029,0.024,0.009,0.017,101.0,103.0,101.0,13.3,1505.2,328.7,-0.8,1.8,2471.187,13.28,0.025,69.4
2022-05-03T09:16:03,42.805,6.029,0.025,-0.001,0.01,101.0,103.0,100.0,13.4,1505.2,323.7,-0.8,1.8,2471.14,13.28,0.025,92.3
2022-05-03T09:19:03,42.805,6.029,0.043,0.008,0.009,102.0,103.0,100.0,13.3,1505.2,328.3,-0.8,1.8,2471.026,13.28,0.043,79.5
2022-05-03T09:22:03,42.805,6.029,0.041,-0.005,-0.01,101.0,103.0,100.0,13.4,1505.2,325.5,-0.8,1.8,2470.971,13.28,0.041,97.0
2022-05-03T09:25:03,42.805,6.029,0.016,0.0,0.0,101.0,102.0,100.0,13.3,1505.2,329.5,-0.8,1.8,2471.058,13.28,0.016,90.0
2022-05-03T09:28:03,42.805,6.029,0.011,0.019,-0.003,102.0,102.0,101.0,13.4,1505.2,322.4,-0.7,1.8,2471.174,13.28,0.021,30.1
2022-05-03T09:31:03,42.805,6.029,0.021,-0.012,0.0,102.0,102.0,100.0,13.4,1505.2,331.4,-0.8,1.8,2471.304,13.28,0.024,119.7
2022-05-03T09:34:03,42.805,6.029,0.022,-0.019,-0.002,103.0,104.0,99.0,13.3,1505.2,330.4,-0.7,1.8,2471.368,13.28,0.029,130.8
2022-05-03T09:37:03,42.805,6.029,0.042,-0.002,-0.02,102.0,103.0,100.0,13.4,1505.2,325.6,-0.8,1.8,2471.39,13.28,0.042,92.7
2022-05-03T09:40:03,42.805,6.029,0.016,0.01,0.033,100.0,102.0,101.0,13.4,1505.2,325.2,-0.7,1.8,2471.367,13.28,0.018,58.0
2022-05-03T09:43:03,42.805,6.029,0.03,0.003,0.031,101.0,104.0,100.0,13.4,1505.2,324.9,-0.7,1.8,2471.402,13.28,0.03,84.3
2022-05-03T09:46:03,42.805,6.029,0.047,0.002,0.07,100.0,101.0,101.0,13.4,1505.2,329.0,-0.7,1.8,2471.4,13.28,0.047,87.6
2022-05-03T09:49:03,42.805,6.029,0.02,0.006,0.018,101.0,102.0,101.0,13.4,1505.2,324.4,-0.8,1.8,2471.387,13.28,0.02,73.3
2022-05-03T09:52:03,42.805,6.029,0.021,0.006,0.011,100.0,103.0,101.0,13.4,1505.2,326.0,-0.8,1.8,2471.389,13.28,0.021,74.1
2022-05-03T09:55:03,42.805,6.029,0.035,0.0,-0.005,101.0,102.0,101.0,13.4,1505.2,324.0,-0.7,1.8,2471.386,13.28,0.035,90.0
2022-05-03T09:58:03,42.805,6.029,0.027,-0.007,0.011,101.0,102.0,99.0,13.4,1505.2,327.2,-0.8,1.8,2471.37,13.28,0.027,104.5
2022-05-03T10:04:03,42.805,6.029,0.034,0.011,-0.004,101.0,102.0,100.0,13.4,1505.2,327.2,-0.8,1.8,2471.32,13.28,0.035,72.1